Bluefield, WV

8:47 PM EST on November 13, 2019 (GMT -0500)
Mercer County

Weather History for KBLF - August, 2019

Change the Weather History Date:

Wednesday, August 21, 2019

  Actual Average Record
Temperature  
Mean Temperature 75 °F 72 °F  
Max Temperature 84 °F 81 °F 94 °F (1936)
Min Temperature 66 °F 64 °F 44 °F (1922)
Degree Days  
Heating Degree Days 0 0  
Month to date heating degree days 0 0  
Since 1 June heating degree days 52 24  
Since 1 July heating degree days 5 2  
Cooling Degree Days 10 7  
Month to date cooling degree days 157 164  
Year to date cooling degree days 512 669  
Since 1 June cooling degree days 433 578  
Growing Degree Days 25 (Base 50)    
Moisture  
Dew Point 62 °F    
Average Humidity 67    
Maximum Humidity 90    
Minimum Humidity 47    
Precipitation  
Precipitation 0.00 in 0.09 in 1.14 in (1980)
Month to date precipitation 1.33 2.29  
Year to date precipitation 26.66 27.42  
Snow  
Snow 0.00 in - - ()
Month to date snowfall 0.0  
Since 1 June snowfall 0.0  
Since 1 July snowfall 0.0  
Snow Depth 0.00 in    
Sea Level Pressure  
Sea Level Pressure 30.02 in    
Wind  
Wind Speed 5 mph ()    
Max Wind Speed 18 mph    
Max Gust Speed 24 mph    
Visibility 10.0 miles    
Events      
T = Trace of Precipitation, MM = Missing Value Source: Averaged Metar Reports

Daily Weather History Graph

Daily Weather History Graph

Search for Another Location

Airport or City:

Astronomy

Aug. 21, 2019 Rise Set
Actual Time 6:46 AM EDT 8:09 PM EDT
Civil Twilight 6:18 AM EDT 8:36 PM EDT
Nautical Twilight 5:45 AM EDT 9:09 PM EDT
Astronomical Twilight 5:11 AM EDT 9:43 PM EDT
Moon 11:33 PM EDT (8/21) 12:13 PM EDT (8/21)
Length of Visible Light 14h 17m
Length of Day
13h 23m
Waning Gibbous, 69% of the Moon is Illuminated
Aug 21
Waning Gibbous
Aug 23
Last Quarter
Aug 30
New
Sep 5
First Quarter
Sep 14
Full

Hourly Weather History & Observations

Time (EDT) Temp. Heat Index Dew Point Humidity Pressure Visibility Wind Dir Wind Speed Gust Speed Precip Events Conditions
12:52 AM 69.1 °F - 62.1 °F 78% 30.03 in 10.0 mi South 3.5 mph - N/A   Clear
1:52 AM 69.1 °F - 62.1 °F 78% 30.02 in 10.0 mi South 3.5 mph - N/A   Partly Cloudy
2:52 AM 69.1 °F - 62.1 °F 78% 30.01 in 10.0 mi Calm Calm - N/A   Mostly Cloudy
3:52 AM 70.0 °F - 62.1 °F 76% 30.02 in 10.0 mi Calm Calm - N/A   Partly Cloudy
4:52 AM 66.9 °F - 62.1 °F 84% 30.04 in 10.0 mi SW 3.5 mph - N/A   Scattered Clouds
5:52 AM 68.0 °F - 62.1 °F 81% 30.04 in 10.0 mi West 4.6 mph - N/A   Partly Cloudy
6:52 AM 66.0 °F - 62.1 °F 87% 30.04 in 10.0 mi West 5.8 mph - N/A   Clear
7:52 AM 66.0 °F - 63.0 °F 90% 30.05 in 10.0 mi West 5.8 mph - N/A   Clear
8:52 AM 70.0 °F - 63.0 °F 78% 30.04 in 10.0 mi WSW 6.9 mph - N/A   Clear
9:52 AM 72.0 °F - 64.0 °F 76% 30.04 in 10.0 mi West 9.2 mph - N/A   Clear
10:52 AM 75.0 °F - 63.0 °F 66% 30.04 in 10.0 mi WSW 11.5 mph - N/A   Partly Cloudy
11:52 AM 78.1 °F - 63.0 °F 60% 30.04 in 10.0 mi West 8.1 mph - N/A   Partly Cloudy
12:52 PM 80.1 °F 81.1 °F 61.0 °F 52% 30.02 in 10.0 mi West 9.2 mph - N/A   Clear
1:52 PM 82.0 °F 83.0 °F 62.1 °F 51% 30.02 in 10.0 mi West 15.0 mph - N/A   Partly Cloudy
2:52 PM 82.0 °F 83.0 °F 62.1 °F 51% 30.01 in 10.0 mi West 11.5 mph 19.6 mph N/A   Scattered Clouds
3:52 PM 84.0 °F 84.9 °F 63.0 °F 49% 29.98 in 10.0 mi West 15.0 mph 21.9 mph N/A   Scattered Clouds
4:52 PM 82.9 °F 84.0 °F 63.0 °F 51% 29.97 in 10.0 mi West 11.5 mph - N/A   Scattered Clouds
5:52 PM 82.9 °F 84.0 °F 63.0 °F 51% 29.96 in 10.0 mi West 11.5 mph - N/A   Scattered Clouds
6:52 PM 82.0 °F 82.7 °F 61.0 °F 49% 29.97 in 10.0 mi West 5.8 mph - N/A   Partly Cloudy
7:52 PM 79.0 °F - 61.0 °F 54% 29.99 in 10.0 mi WNW 5.8 mph - N/A   Partly Cloudy
8:52 PM 77.0 °F - 60.1 °F 56% 29.99 in 10.0 mi WNW 3.5 mph - N/A   Clear
9:52 PM 72.0 °F - 61.0 °F 68% 30.02 in 10.0 mi WSW 3.5 mph - N/A   Clear
10:52 PM 72.0 °F - 61.0 °F 68% 30.02 in 10.0 mi WSW 4.6 mph - N/A   Partly Cloudy
11:52 PM 71.1 °F - 61.0 °F 70% 30.02 in 10.0 mi WSW 4.6 mph - N/A   Clear